Flag for Greece Weather past 2 weeks in Chania, Crete, Greece

Now
54 °F

Passing clouds.


Feels Like: 50 °F
Forecast: 53 / 63 °F
Wind: 12 mph from West

Location: Souda Airport

Current Time: Feb 28, 2015 at 8:18:29 PM

Latest Report: Feb 28, 2015 at 7:50 PM


Visibility: N/A

Pressure: 30.01 "Hg

Humidity: 77%

Dew point: 46 °F

Location of ChaniaLocation

Historic Weather in Chania — Graph

°F

Chania temperature yesterday

Maximum temperature yesterday: 61 °F (at 2:50 PM)
Minimum temperature yesterday: 50 °F (at 11:50 AM)
Average temperature yesterday: 56 °F

Past Weeks' High & Low Weather Summary

 TemperatureHumidityPressure
High63 °F (Feb 23, 11:50 AM)94% (Feb 22, 12:50 AM)30.36 "Hg (Feb 22, 12:50 AM)
Low34 °F (Feb 19, 2:50 AM)37% (Feb 25, 3:50 PM)29.65 "Hg (Feb 24, 12:50 PM)
Average51 °F71%30.00 "Hg
* Reported Feb 13 6:20 PM — Feb 28 6:50 PM, Chania, Weather by CustomWeather, © 2015

Note: Actual official high and low records may vary slightly from our data, if they occured in-between our weather recording intervals... More about our weather records

Advertising

Chania weather history for previous 24 hours

 ConditionsComfort  
Time TempWeatherWind HumidityBarometerVisibility
6:50 PM
Sat, Feb 28
55 °FPassing clouds.12 mph72%29.98 "HgN/A
6:20 PM55 °FPassing clouds.14 mph67%29.98 "HgN/A
5:50 PM55 °FScattered clouds.14 mph67%29.98 "HgN/A
5:20 PM57 °FScattered clouds.16 mph72%29.95 "HgN/A
4:50 PM57 °FScattered clouds.16 mph72%29.95 "HgN/A
4:20 PM61 °FScattered clouds.14 mph59%29.95 "HgN/A
3:50 PM61 °FScattered clouds.14 mph59%29.95 "HgN/A
3:20 PM59 °FScattered clouds.16 mph63%29.95 "HgN/A
2:50 PM59 °FScattered clouds.16 mph63%29.95 "HgN/A
2:20 PM61 °FScattered clouds.17 mph59%29.95 "HgN/A
1:50 PM61 °FScattered clouds.18 mph59%29.95 "HgN/A
1:20 PM63 °FScattered clouds.18 mph56%29.95 "HgN/A
12:50 PM61 °FScattered clouds.21 mph52%29.95 "HgN/A
12:20 PM59 °FScattered clouds.21 mph63%29.95 "HgN/A
11:50 AM61 °FScattered clouds.21 mph59%29.95 "HgN/A
11:20 AM61 °FScattered clouds.18 mph55%29.95 "HgN/A
10:50 AM61 °FScattered clouds.22 mph55%29.92 "HgN/A
10:20 AM59 °FScattered clouds.21 mph59%29.92 "HgN/A
9:50 AM59 °FScattered clouds.21 mph59%29.92 "HgN/A
9:20 AM57 °FScattered clouds.16 mph63%29.92 "HgN/A
8:50 AM57 °FScattered clouds.16 mph63%29.92 "HgN/A
8:20 AM54 °FScattered clouds.12 mph72%29.89 "HgN/A
7:50 AM54 °FScattered clouds.20 mph67%29.89 "HgN/A
7:20 AM54 °FScattered clouds.12 mph67%29.86 "HgN/A
6:50 AM54 °FPassing clouds.15 mph63%29.86 "HgN/A
6:20 AM54 °FPassing clouds.20 mph67%29.83 "HgN/A
5:50 AM54 °FPassing clouds.18 mph67%29.83 "HgN/A
5:20 AM52 °FPassing clouds.21 mph72%29.83 "HgN/A
4:50 AM52 °FLight rain. Passing clouds.13 mph77%29.83 "HgN/A
4:20 AM54 °FPassing clouds.17 mph72%29.83 "HgN/A
3:50 AM54 °FPassing clouds.22 mph72%29.83 "HgN/A
3:20 AM52 °FPassing clouds.23 mph72%29.80 "HgN/A
2:50 AM52 °FPassing clouds.20 mph77%29.80 "HgN/A
2:20 AM52 °FPassing clouds.25 mph88%29.80 "HgN/A
1:50 AM52 °FPartly cloudy.15 mph88%29.80 "HgN/A
1:20 AM52 °FPartly cloudy.12 mph88%29.80 "HgN/A
12:50 AM54 °FRain. Partly cloudy.14 mph77%29.80 "Hg5 mi
12:20 AM54 °FPartly cloudy.8 mph72%29.80 "HgN/A
11:50 PM
Fri, Feb 27
54 °FPartly cloudy.6 mph72%29.77 "HgN/A
11:20 PM54 °FPassing clouds.No wind67%29.77 "HgN/A
10:50 PM52 °FPassing clouds.6 mph72%29.77 "HgN/A
10:20 PM52 °FPassing clouds.10 mph72%29.77 "HgN/A
9:50 PM52 °FPassing clouds.7 mph77%29.71 "HgN/A
9:20 PM54 °FPassing clouds.9 mph67%29.77 "HgN/A
8:50 PM54 °FPassing clouds.9 mph72%29.77 "HgN/A
8:20 PM55 °FPassing clouds.14 mph59%29.74 "HgN/A
Weather by CustomWeather, © 2015

See weather overviewHow to use our weather pages